#timestamp,LO_Frequency,Hit,StdDev 
1615993215.6,286046999.1,N
1615993235.4,286046998.4,N
1615993255.2,286046998.9,N
1615993275.1,286046998.8,N
1615993276.0,286046998.8,N
1615993295.8,286046996.6,N
1615993315.7,286046999.5,N
1615993335.5,286046996.8,N
1615993355.3,286046997.2,N
1615993375.2,286046996.8,N
1615993395.9,286046999.3,N
1615993415.7,286046999.0,N
1615993435.6,286046999.4,N
1615993455.4,286046998.9,N
1615993475.3,286046999.3,N
1615993495.1,286046999.5,N
1615993496.0,286046999.5,N
1615993515.8,286046997.3,N
1615993535.7,286046997.9,N
1615993555.5,286046995.1,Y
1615993575.3,286046996.8,P
1615993595.2,286046997.1,N
1615993615.0,286046997.8,N
1615993615.9,286046997.8,N
1615993635.8,286046997.5,Y
1615993655.6,286046998.8,P
1615993675.4,286046998.3,P
1615993695.3,286047001.2,N
1615993715.1,286046998.2,N
1615993735.8,286046998.4,N
1615993755.7,286046998.6,N
1615993775.5,286046998.7,N
1615993795.3,286046999.0,N
1615993815.2,286046998.9,N
1615993835.0,286046999.1,N
1615993835.9,286046999.1,N
1615993855.8,286046998.7,N
1615993875.6,286046998.2,N
1615993895.4,286046998.4,N
1615993915.3,286046998.9,N
1615993935.1,286046998.1,N
1615993955.8,286047001.1,N
1615993975.7,286046998.5,N
1615993995.5,286046998.9,N
1615994015.4,286046996.6,Y
1615994035.2,286046998.3,P
1615994055.0,286046998.7,P
1615994055.9,286046998.7,P
1615994075.8,286046998.6,Y
1615994095.6,286047000.4,P
1615994115.5,286047000.5,N
1615994135.3,286047002.7,P
1615994155.1,286047001.4,N
1615994175.9,286047002.3,N
1615994195.7,286047000.0,N
1615994215.5,286047000.1,N
1615994235.4,286047000.3,N
1615994255.2,286046999.9,N
1615994275.1,286047001.0,N
1615994276.0,286047001.0,N
1615994295.8,286046999.7,N
1615994315.6,286047000.6,N
1615994335.5,286046999.8,N
1615994355.3,286047000.6,N
1615994375.1,286047000.6,N
1615994395.9,286047000.3,N
1615994415.7,286046998.1,N
1615994435.6,286046998.6,N
1615994455.4,286046998.1,N
1615994475.2,286046998.9,N
1615994495.1,286046999.4,N
1615994496.0,286046999.4,N
1615994515.8,286046998.3,N
1615994535.6,286046999.3,N
1615994555.5,286046998.5,N
1615994575.3,286046998.4,N
1615994595.1,286046999.3,N
1615994615.9,286046998.3,N
1615994635.7,286047001.2,N
1615994655.6,286047001.0,N
1615994675.4,286046999.9,N
1615994695.2,286047000.0,N
1615994715.1,286047002.8,N
1615994716.0,286047002.8,N
1615994735.8,286047002.4,N
1615994755.7,286047000.4,N
1615994775.5,286046999.9,N
1615994795.3,286047000.4,N
1615994815.2,286047002.4,N
1615994835.9,286047002.3,N
1615994855.7,286047002.5,N
1615994875.6,286047001.6,N
1615994895.4,286047002.6,N
1615994915.2,286047001.5,N
1615994935.1,286047001.5,N
1615994936.0,286047001.5,N
1615994955.8,286046999.7,N
1615994975.7,286046999.7,N
1615994995.5,286047000.5,N
1615995015.3,286047000.6,N
1615995035.2,286047000.6,N
1615995055.0,286047000.1,N
1615995055.9,286047000.1,N
1615995075.8,286047002.0,N
1615995095.6,286047000.2,N
1615995115.4,286047000.1,N
1615995135.3,286046998.9,N
1615995155.1,286046999.3,N
1615995175.8,286046999.3,N
1615995195.7,286047001.1,N
1615995215.5,286046998.3,N
1615995235.3,286047001.0,N
1615995255.2,286046998.1,N
1615995275.0,286047000.8,N
1615995275.9,286047000.8,N
1615995295.8,286046999.8,N
1615995315.6,286047000.6,N
1615995335.4,286047002.2,N
1615995355.3,286047001.5,N
1615995375.1,286047001.7,N
1615995395.9,286047002.2,N
1615995415.7,286047001.3,N
1615995435.5,286047001.8,N
1615995455.4,286047002.6,N
1615995475.2,286047002.5,N
1615995495.0,286047002.8,N
1615995495.9,286047002.8,N
1615995515.8,286046999.9,N
1615995535.6,286047000.3,N
1615995555.4,286047000.5,N
1615995575.3,286047000.3,N
1615995595.1,286047001.6,N
1615995615.9,286047004.4,Y
1615995635.7,286047004.4,P
1615995655.5,286047002.3,N
1615995675.4,286047002.5,N
1615995695.2,286047001.8,N
1615995715.1,286047003.9,Y
1615995716.0,286047003.9,P
1615995735.8,286047002.4,P
1615995755.6,286047003.6,P
1615995775.5,286047004.0,Y
1615995795.3,286046999.9,P
1615995815.1,286047000.2,N
1615995835.9,286047002.2,N
1615995855.7,286047000.1,N
1615995875.6,286047002.7,N
1615995895.4,286047002.2,N
1615995915.2,286047002.5,N
1615995935.1,286047001.4,N
1615995936.0,286047001.4,N
1615995955.8,286047004.0,Y
1615995975.6,286047002.7,P
1615995995.5,286047000.5,N
1615996015.3,286046998.2,N
1615996035.2,286046998.6,N
1615996055.9,286046998.2,N
1615996075.7,286047001.1,N
1615996095.6,286047000.3,N
1615996115.4,286047000.0,N
1615996135.2,286047000.0,N
1615996155.1,286047001.3,N
1615996156.0,286047001.3,N
1615996175.8,286046999.8,N
1615996195.7,286047002.4,N
1615996215.5,286047002.0,N
1615996235.3,286047002.2,N
1615996255.2,286047001.3,N
1615996275.0,286047001.5,N
1615996275.9,286047001.5,N
1615996295.8,286047002.6,N
1615996315.6,286047002.1,N
1615996335.4,286047003.7,N
1615996355.3,286047003.8,N
1615996375.1,286047004.2,N
1615996376.0,286047004.2,N
1615996395.8,286047004.2,N
1615996415.7,286047001.8,N
1615996435.5,286047001.4,N
1615996455.3,286047004.1,N
1615996475.2,286047004.4,N
1615996495.0,286047003.5,N
1615996495.9,286047003.5,N
1615996515.8,286047004.3,N
1615996535.6,286047004.3,N
1615996555.4,286047002.0,N
1615996575.3,286047001.6,N
1615996595.1,286047001.8,N
1615996615.8,286047001.9,N
1615996635.7,286047002.6,N
1615996655.5,286047000.1,N
1615996675.4,286047001.7,N
1615996695.2,286047004.3,Y
1615996715.0,286047001.1,P
1615996715.9,286047001.1,N
1615996735.8,286047002.1,P
1615996755.6,286047002.2,Y
1615996775.5,286047000.3,P
1615996795.3,286047000.5,N
